Weather History for Menominee, MI

Change the Weather History Date:

Friday, March 9, 2012

  Actual Average Record
Temperature  
Mean Temperature 26 °F -  
Max Temperature 30 °F 39 °F 54 °F (1955)
Min Temperature 21 °F 18 °F -5 °F (2003)
Degree Days  
Heating Degree Days 40    
Moisture  
Dew Point 7 °F    
Average Humidity 45    
Maximum Humidity 69    
Minimum Humidity 27    
Precipitation  
Precipitation 0.00 in - - ()
Sea Level Pressure  
Sea Level Pressure 30.38 in    
Wind  
Wind Speed 12 mph (NNW)    
Max Wind Speed 21 mph    
Max Gust Speed 30 mph    
Visibility 10 miles    
Events      
Averages and records for this station are not official NWS values.
T = Trace of Precipitation, MM = Missing Value Source: NWS Daily Summary

Daily Weather History Graph

Daily Weather History Graph

Search for Another Location

Airport:

Trip Planner

Search our weather history database for the weather conditions in past years. The results will help you decide how hot, cold, wet, or windy it might be!

Date:

Astronomy

Mar. 09, 2012 Rise Set
Actual Time 6:13 AM CST 5:49 PM CST
Civil Twilight 5:43 AM CST 6:18 PM CST
Nautical Twilight 5:09 AM CST 6:52 PM CST
Astronomical Twilight 4:35 AM CST 7:27 PM CST
Moon 7:57 PM CST (3/9) 6:25 AM CST (3/9)
Length of Visible Light 12h 34m
Length of Day
11h 36m
Full, 97% of the Moon is Illuminated
Mar 9
Full
Mar 14
Last Quarter
Mar 22
New
Mar 30
First Quarter
Apr 6
Full

Hourly Weather History & Observations

Time (CST) Temp. Windchill Dew Point Humidity Pressure Visibility Wind Dir Wind Speed Gust Speed Precip Events Conditions
12:15 AM 28.4 °F 19.1 °F 17.6 °F 64% 30.07 in 10.0 mi NW 10.4 mph 19.6 mph N/A   Partly Cloudy
12:35 AM 28.4 °F 18.0 °F 17.6 °F 64% 30.08 in 10.0 mi NW 12.7 mph 18.4 mph N/A   Scattered Clouds
12:55 AM 28.4 °F 18.0 °F 15.8 °F 59% 30.09 in 10.0 mi NW 12.7 mph 23.0 mph N/A   Scattered Clouds
1:15 AM 28.4 °F 18.0 °F 15.8 °F 59% 30.11 in 10.0 mi NW 12.7 mph 19.6 mph N/A   Partly Cloudy
1:35 AM 28.4 °F 17.0 °F 15.8 °F 59% 30.12 in 10.0 mi NW 15.0 mph 24.2 mph N/A   Partly Cloudy
1:55 AM 26.6 °F 15.2 °F 15.8 °F 64% 30.13 in 10.0 mi NW 13.8 mph 21.9 mph N/A   Partly Cloudy
2:15 AM 26.6 °F 16.8 °F 15.8 °F 64% 30.14 in 10.0 mi WNW 10.4 mph 18.4 mph N/A   Partly Cloudy
2:35 AM 26.6 °F 16.8 °F 15.8 °F 64% 30.15 in 10.0 mi NW 10.4 mph 17.3 mph N/A   Mostly Cloudy
2:55 AM 26.6 °F 14.3 °F 14.0 °F 59% 30.15 in 10.0 mi NNW 16.1 mph 25.3 mph N/A   Mostly Cloudy
3:15 AM 26.6 °F 17.5 °F 12.2 °F 55% 30.17 in 10.0 mi NNW 9.2 mph 23.0 mph N/A   Mostly Cloudy
3:35 AM 26.6 °F 15.7 °F 15.8 °F 64% 30.19 in 10.0 mi NNW 12.7 mph 21.9 mph N/A   Overcast
3:55 AM 24.8 °F 11.9 °F 15.8 °F 69% 30.20 in 10.0 mi NNW 16.1 mph 23.0 mph N/A   Mostly Cloudy
4:15 AM 24.8 °F 14.0 °F 8.6 °F 50% 30.22 in 10.0 mi NNW 11.5 mph 19.6 mph N/A   Partly Cloudy
4:35 AM 24.8 °F 13.4 °F 8.6 °F 50% 30.24 in 10.0 mi NNW 12.7 mph 24.2 mph N/A   Partly Cloudy
4:55 AM 24.8 °F 10.3 °F 8.6 °F 50% 30.26 in 10.0 mi NNW 20.7 mph 25.3 mph N/A   Partly Cloudy
5:15 AM 23.0 °F 11.7 °F 8.6 °F 54% 30.27 in 10.0 mi NNW 11.5 mph 26.5 mph N/A   Mostly Cloudy
5:35 AM 23.0 °F 11.7 °F 10.4 °F 59% 30.29 in 10.0 mi NNW 11.5 mph 19.6 mph N/A   Overcast
6:15 AM 21.2 °F 8.3 °F 12.2 °F 68% 30.32 in 10.0 mi North 13.8 mph - N/A   Overcast
6:35 AM 21.2 °F 8.3 °F 12.2 °F 68% 30.33 in 10.0 mi NNW 13.8 mph 20.7 mph N/A   Scattered Clouds
6:55 AM 21.2 °F 9.5 °F 8.6 °F 58% 30.33 in 10.0 mi NNW 11.5 mph 24.2 mph N/A   Clear
7:15 AM 21.2 °F 7.3 °F 8.6 °F 58% 30.35 in 10.0 mi NNW 16.1 mph 20.7 mph N/A   Clear
7:35 AM 21.2 °F 7.8 °F 8.6 °F 58% 30.37 in 10.0 mi NNW 15.0 mph 25.3 mph N/A   Clear
7:55 AM 23.0 °F 10.1 °F 6.8 °F 50% 30.38 in 10.0 mi NNW 15.0 mph 18.4 mph N/A   Partly Cloudy
8:15 AM 23.0 °F 10.6 °F 8.6 °F 54% 30.39 in 10.0 mi NNW 13.8 mph 21.9 mph N/A   Scattered Clouds
8:55 AM 23.0 °F 9.6 °F 6.8 °F 50% 30.42 in 10.0 mi NNW 16.1 mph 25.3 mph N/A   Mostly Cloudy
9:15 AM 24.8 °F 11.5 °F 8.6 °F 50% 30.43 in 10.0 mi North 17.3 mph 26.5 mph N/A   Mostly Cloudy
9:35 AM 24.8 °F 12.9 °F 6.8 °F 46% 30.43 in 10.0 mi NNW 13.8 mph 24.2 mph N/A   Scattered Clouds
9:55 AM 24.8 °F 11.1 °F 6.8 °F 46% 30.44 in 10.0 mi NNW 18.4 mph 29.9 mph N/A   Partly Cloudy
10:15 AM 24.8 °F 12.4 °F 6.8 °F 46% 30.45 in 10.0 mi NNW 15.0 mph 24.2 mph N/A   Clear
10:35 AM 26.6 °F 15.7 °F 6.8 °F 43% 30.46 in 10.0 mi NNW 12.7 mph 24.2 mph N/A   Clear
10:55 AM 26.6 °F 15.7 °F 6.8 °F 43% 30.46 in 10.0 mi NW 12.7 mph 21.9 mph N/A   Clear
11:15 AM 26.6 °F 16.2 °F 3.2 °F 37% 30.47 in 10.0 mi NW 11.5 mph 18.4 mph N/A   Partly Cloudy
11:35 AM 28.4 °F 15.8 °F 3.2 °F 34% 30.47 in 10.0 mi NNW 18.4 mph 27.6 mph N/A   Clear
11:55 AM 28.4 °F 18.0 °F 3.2 °F 34% 30.47 in 10.0 mi North 12.7 mph 24.2 mph N/A   Clear
12:15 PM 28.4 °F 17.0 °F 3.2 °F 34% 30.48 in 10.0 mi NNW 15.0 mph 28.8 mph N/A   Clear
12:35 PM 28.4 °F 16.2 °F 1.4 °F 31% 30.47 in 10.0 mi North 17.3 mph 21.9 mph N/A   Clear
12:55 PM 30.2 °F 21.9 °F 3.2 °F 32% 30.47 in 10.0 mi WNW 9.2 mph - N/A   Clear
1:15 PM 28.4 °F 16.6 °F 1.4 °F 31% 30.48 in 10.0 mi NNW 16.1 mph 21.9 mph N/A   Clear
1:35 PM 30.2 °F 20.2 °F 1.4 °F 29% 30.48 in 10.0 mi North 12.7 mph 19.6 mph N/A   Clear
1:55 PM 30.2 °F 20.2 °F 1.4 °F 29% 30.48 in 10.0 mi NNW 12.7 mph 19.6 mph N/A   Clear
2:15 PM 30.2 °F 21.3 °F 1.4 °F 29% 30.48 in 10.0 mi North 10.4 mph 21.9 mph N/A   Clear
2:35 PM 30.2 °F 21.3 °F 1.4 °F 29% 30.48 in 10.0 mi NNW 10.4 mph 16.1 mph N/A   Clear
2:55 PM 30.2 °F 20.8 °F 1.4 °F 29% 30.48 in 10.0 mi North 11.5 mph 19.6 mph N/A   Clear
3:15 PM 30.2 °F 20.2 °F 1.4 °F 29% 30.48 in 10.0 mi NNW 12.7 mph 17.3 mph N/A   Clear
3:35 PM 30.2 °F 21.3 °F 1.4 °F 29% 30.49 in 10.0 mi NW 10.4 mph 18.4 mph N/A   Clear
3:55 PM 30.2 °F 21.3 °F -0.4 °F 27% 30.49 in 10.0 mi North 10.4 mph - N/A   Clear
4:15 PM 30.2 °F 21.9 °F -0.4 °F 27% 30.49 in 10.0 mi NNW 9.2 mph 16.1 mph N/A   Clear
4:35 PM 30.2 °F 23.4 °F -0.4 °F 27% 30.49 in 10.0 mi NNE 6.9 mph - N/A   Clear
4:55 PM 30.2 °F 21.9 °F 1.4 °F 29% 30.49 in 10.0 mi NNW 9.2 mph - N/A   Clear
5:15 PM 28.4 °F 21.2 °F -0.4 °F 29% 30.49 in 10.0 mi NNW 6.9 mph - N/A   Clear
5:35 PM 28.4 °F 22.2 °F -0.4 °F 29% 30.49 in 10.0 mi North 5.8 mph - N/A   Clear
5:55 PM 28.4 °F 23.3 °F -0.4 °F 29% 30.49 in 10.0 mi North 4.6 mph - N/A   Clear
6:15 PM 28.4 °F - -0.4 °F 29% 30.50 in 10.0 mi Calm Calm - N/A   Clear
6:35 PM 26.6 °F 21.2 °F -0.4 °F 31% 30.49 in 10.0 mi ENE 4.6 mph - N/A   Clear
6:55 PM 24.8 °F - 1.4 °F 36% 30.48 in 10.0 mi Calm Calm - N/A   Mostly Cloudy
7:15 PM 24.8 °F - 3.2 °F 40% 30.49 in 10.0 mi Calm Calm - N/A   Overcast
7:35 PM 26.6 °F - 3.2 °F 37% 30.49 in 10.0 mi Calm Calm - N/A   Overcast
7:55 PM 24.8 °F - 3.2 °F 40% 30.49 in 10.0 mi Calm Calm - N/A   Overcast
8:15 PM 24.8 °F - 3.2 °F 40% 30.48 in 10.0 mi Calm Calm - N/A   Overcast
8:35 PM 26.6 °F - 6.8 °F 43% 30.48 in 10.0 mi Calm Calm - N/A   Overcast
8:55 PM 26.6 °F - 8.6 °F 47% 30.48 in 10.0 mi Calm Calm - N/A   Overcast
9:15 PM 26.6 °F 22.6 °F 8.6 °F 47% 30.48 in 10.0 mi South 3.5 mph - N/A   Overcast
9:35 PM 28.4 °F 19.1 °F 6.8 °F 40% 30.47 in 10.0 mi SSE 10.4 mph - N/A   Overcast
9:55 PM 28.4 °F 20.4 °F 10.4 °F 47% 30.46 in 10.0 mi SSE 8.1 mph - N/A   Overcast
10:15 PM 28.4 °F 19.7 °F 8.6 °F 43% 30.46 in 10.0 mi SSE 9.2 mph - N/A   Overcast
10:35 PM 28.4 °F 21.2 °F 8.6 °F 43% 30.47 in 10.0 mi South 6.9 mph - N/A   Overcast
10:55 PM 28.4 °F 22.2 °F 6.8 °F 40% 30.47 in 10.0 mi South 5.8 mph - N/A   Overcast
11:15 PM 28.4 °F 20.4 °F 6.8 °F 40% 30.47 in 10.0 mi South 8.1 mph - N/A   Overcast
11:35 PM 28.4 °F 20.4 °F 6.8 °F 40% 30.47 in 10.0 mi South 8.1 mph - N/A   Overcast
11:55 PM 28.4 °F 20.4 °F 8.6 °F 43% 30.46 in 10.0 mi South 8.1 mph - N/A   Overcast